| time (UTC) | temp F | wind direction | speed MPH | gust MPH | rain 1hr in | rain 24hr in | rain mn in | humidity % | barometer mb |
| 20260505033854 | 56 | 92 | 1.0 | 1.0 | 0.00 | 0.00 | 0.00 | 68 | 1037.3 |
| 20260505032849 | 57 | 87 | 1.0 | 1.0 | 0.00 | 0.00 | 0.00 | 64 | 1037.2 |
| 20260505031848 | 59 | 68 | 2.0 | 2.0 | 0.00 | 0.00 | 0.00 | 58 | 1037.2 |
| 20260505030848 | 64 | 102 | 1.0 | 1.0 | 0.00 | 0.00 | 0.00 | 48 | 1037.3 |
| 20260505025845 | 64 | 96 | 1.0 | 2.0 | 0.00 | 0.00 | 0.00 | 47 | 1037.3 |
| 20260505024841 | 64 | 7 | 3.0 | 5.0 | 0.00 | 0.00 | 0.00 | 47 | 1037.2 |
| 20260505023841 | 65 | 108 | 1.0 | 1.0 | 0.00 | 0.00 | 0.00 | 47 | 1037.4 |
| 20260505022842 | 65 | 87 | 0.0 | 1.0 | 0.00 | 0.00 | 0.00 | 46 | 1037.4 |
| 20260505021842 | 65 | 55 | 1.0 | 3.0 | 0.00 | 0.00 | 0.00 | 46 | 1037.4 |
| 20260505020840 | 66 | 75 | 1.0 | 2.0 | 0.00 | 0.00 | 0.00 | 46 | 1037.4 |
| 20260505015838 | 66 | 106 | 4.0 | 6.0 | 0.00 | 0.00 | 0.00 | 46 | 1037.2 |
| 20260505014838 | 66 | 53 | 4.0 | 6.0 | 0.00 | 0.00 | 0.00 | 45 | 1037.4 |
| 20260505013837 | 66 | 86 | 1.0 | 1.0 | 0.00 | 0.00 | 0.00 | 45 | 1037.3 |
| 20260505012833 | 66 | 73 | 2.0 | 2.0 | 0.00 | 0.00 | 0.00 | 44 | 1037.2 |
| 20260505011832 | 66 | 14 | 2.0 | 3.0 | 0.00 | 0.00 | 0.00 | 45 | 1037.1 |
| 20260505010831 | 66 | 99 | 2.0 | 2.0 | 0.00 | 0.00 | 0.00 | 44 | 1036.9 |
| 20260505005829 | 67 | 87 | 1.0 | 1.0 | 0.00 | 0.00 | 0.00 | 44 | 1036.6 |
| 20260505004824 | 66 | 108 | 1.0 | 1.0 | 0.00 | 0.00 | 0.00 | 44 | 1036.6 |
| 20260505003823 | 66 | 88 | 0.0 | 0.0 | 0.00 | 0.00 | 0.00 | 44 | 1036.7 |
| 20260505002822 | 66 | 111 | 3.0 | 3.0 | 0.00 | 0.00 | 0.00 | 44 | 1036.5 |
| 20260505001818 | 67 | 95 | 0.0 | 0.0 | 0.00 | 0.00 | 0.00 | 42 | 1036.5 |
| 20260505000817 | 68 | 104 | 0.0 | 1.0 | 0.00 | 0.00 | 0.00 | 42 | 1036.3 |
| 20260504235817 | 67 | 49 | 2.0 | 2.0 | 0.00 | 0.00 | 0.00 | 43 | 1036.3 |
| 20260504234817 | 68 | 55 | 1.0 | 1.0 | 0.00 | 0.00 | 0.00 | 42 | 1036.4 |
| 20260504233816 | 69 | 102 | 0.0 | 1.0 | 0.00 | 0.00 | 0.00 | 41 | 1036.2 |
| 20260504232815 | 69 | 76 | 1.0 | 1.0 | 0.00 | 0.00 | 0.00 | 40 | 1036.1 |
| 20260504231815 | 70 | 134 | 4.0 | 5.0 | 0.00 | 0.00 | 0.00 | 39 | 1036.2 |
| 20260504230813 | 70 | 141 | 4.0 | 5.0 | 0.00 | 0.00 | 0.00 | 38 | 1036.0 |
| 20260504225810 | 71 | 41 | 3.0 | 3.0 | 0.00 | 0.00 | 0.00 | 36 | 1036.1 |
| 20260504224809 | 72 | 282 | 4.0 | 5.0 | 0.00 | 0.00 | 0.00 | 36 | 1035.8 |
| 20260504223808 | 72 | 5 | 6.0 | 8.0 | 0.00 | 0.00 | 0.00 | 35 | 1035.9 |
| 20260504222807 | 72 | 7 | 2.0 | 2.0 | 0.00 | 0.00 | 0.00 | 34 | 1035.4 |
| 20260504221801 | 73 | 287 | 5.0 | 6.0 | 0.00 | 0.00 | 0.00 | 34 | 1035.6 |
| 20260504220801 | 73 | 357 | 5.0 | 6.0 | 0.00 | 0.00 | 0.00 | 34 | 1035.8 |
| 20260504215755 | 73 | 253 | 8.0 | 9.0 | 0.00 | 0.00 | 0.00 | 34 | 1036.0 |
| 20260504214753 | 74 | 212 | 5.0 | 7.0 | 0.00 | 0.00 | 0.00 | 34 | 1036.1 |
| 20260504213753 | 73 | 37 | 1.0 | 2.0 | 0.00 | 0.00 | 0.00 | 34 | 1036.2 |
| 20260504212752 | 72 | 105 | 6.0 | 9.0 | 0.00 | 0.00 | 0.00 | 35 | 1036.0 |
| 20260504211752 | 73 | 302 | 6.0 | 7.0 | 0.00 | 0.00 | 0.00 | 34 | 1036.1 |
| 20260504210751 | 73 | 60 | 3.0 | 3.0 | 0.00 | 0.00 | 0.00 | 32 | 1036.0 |
| 20260504205751 | 73 | 289 | 4.0 | 5.0 | 0.00 | 0.00 | 0.00 | 34 | 1036.1 |
| 20260504204747 | 73 | 74 | 3.0 | 5.0 | 0.00 | 0.00 | 0.00 | 33 | 1036.3 |
| 20260504203744 | 73 | 317 | 5.0 | 7.0 | 0.00 | 0.00 | 0.00 | 35 | 1036.3 |
| 20260504202741 | 71 | 111 | 4.0 | 6.0 | 0.00 | 0.00 | 0.00 | 35 | 1036.7 |
| 20260504201735 | 72 | 134 | 2.0 | 2.0 | 0.00 | 0.00 | 0.00 | 34 | 1036.8 |
| 20260504200730 | 72 | 202 | 2.0 | 3.0 | 0.00 | 0.00 | 0.00 | 34 | 1037.0 |
| 20260504195728 | 72 | 277 | 7.0 | 8.0 | 0.00 | 0.00 | 0.00 | 35 | 1037.0 |
| 20260504194727 | 71 | 327 | 9.0 | 11.0 | 0.00 | 0.00 | 0.00 | 37 | 1037.2 |
| 20260504193726 | 71 | 249 | 5.0 | 7.0 | 0.00 | 0.00 | 0.00 | 35 | 1037.4 |
| 20260504192721 | 71 | 14 | 4.0 | 5.0 | 0.00 | 0.00 | 0.00 | 36 | 1037.3 |
| 20260504191718 | 71 | 280 | 12.0 | 15.0 | 0.00 | 0.00 | 0.00 | 35 | 1037.5 |
| 20260504190715 | 70 | 93 | 2.0 | 3.0 | 0.00 | 0.00 | 0.00 | 35 | 1037.6 |
| 20260504185714 | 70 | 24 | 7.0 | 8.0 | 0.00 | 0.00 | 0.00 | 37 | 1037.7 |
| 20260504184713 | 69 | 267 | 5.0 | 7.0 | 0.00 | 0.00 | 0.00 | 36 | 1038.0 |
| 20260504183711 | 68 | 276 | 4.0 | 6.0 | 0.00 | 0.00 | 0.00 | 37 | 1038.0 |
| 20260504182706 | 70 | 58 | 7.0 | 8.0 | 0.00 | 0.00 | 0.00 | 36 | 1038.3 |
| 20260504181707 | 68 | 280 | 7.0 | 8.0 | 0.00 | 0.00 | 0.00 | 37 | 1038.1 |
| 20260504180703 | 69 | 301 | 5.0 | 5.0 | 0.00 | 0.00 | 0.00 | 37 | 1038.0 |
| 20260504175658 | 68 | 309 | 7.0 | 10.0 | 0.00 | 0.00 | 0.00 | 39 | 1038.6 |
| 20260504174658 | 68 | 282 | 6.0 | 7.0 | 0.00 | 0.00 | 0.00 | 38 | 1038.6 |
| 20260504173658 | 68 | 284 | 6.0 | 8.0 | 0.00 | 0.00 | 0.00 | 38 | 1038.8 |
| 20260504172658 | 68 | 276 | 8.0 | 9.0 | 0.00 | 0.00 | 0.00 | 38 | 1038.7 |
| 20260504171657 | 67 | 98 | 9.0 | 13.0 | 0.00 | 0.00 | 0.00 | 40 | 1038.8 |
| 20260504170655 | 66 | 303 | 7.0 | 11.0 | 0.00 | 0.00 | 0.00 | 39 | 1038.8 |
| 20260504150630 | 61 | 32 | 3.0 | 5.0 | 0.00 | 0.00 | 0.00 | 41 | 1040.6 |
| 20260504140615 | 59 | 331 | 6.0 | 7.0 | 0.00 | 0.00 | 0.00 | 41 | 1041.0 |
| 20260504130602 | 53 | 71 | 2.0 | 2.0 | 0.00 | 0.00 | 0.00 | 52 | 1041.7 |
| 20260504110537 | 34 | 102 | 1.0 | 2.0 | 0.00 | 0.00 | 0.00 | 94 | 1042.3 |
| 20260504100522 | 30 | 87 | 0.0 | 0.0 | 0.00 | 0.00 | 0.00 | 94 | 1042.0 |
| 20260504081454 | 32 | 85 | 0.0 | 0.0 | 0.00 | 0.00 | 0.00 | 93 | 1042.2 |
| 20260504080452 | 32 | 85 | 0.0 | 0.0 | 0.00 | 0.00 | 0.00 | 93 | 1042.2 |
| 20260504050421 | 35 | 85 | 0.0 | 0.0 | 0.00 | 0.00 | 0.00 | 87 | 1042.1 |
| 20260504045419 | 35 | 84 | 1.0 | 1.0 | 0.00 | 0.00 | 0.00 | 87 | 1042.0 |
| 20260504044419 | 36 | 85 | 0.0 | 1.0 | 0.00 | 0.00 | 0.00 | 87 | 1042.1 |
| 20260504043419 | 36 | 85 | 0.0 | 1.0 | 0.00 | 0.00 | 0.00 | 86 | 1042.1 |
| 20260504042419 | 36 | 85 | 0.0 | 0.0 | 0.00 | 0.00 | 0.00 | 86 | 1041.9 |
| 20260504041418 | 36 | 85 | 0.0 | 0.0 | 0.00 | 0.00 | 0.00 | 85 | 1042.0 |
| 20260504040412 | 37 | 85 | 0.0 | 0.0 | 0.00 | 0.00 | 0.00 | 84 | 1041.8 |
| 20260504035411 | 37 | 85 | 0.0 | 0.0 | 0.00 | 0.00 | 0.00 | 83 | 1042.0 |